| time (UTC) | temp C | wind direction | speed KPH | gust KPH | rain 1hr cm | rain 24hr cm | rain mn cm | humidity % | barometer mb |
| 20260503025006 | 9 | 216 | 1.6 | 4.8 | 0.00 | 0.00 | 0.00 | 73 | 1012.6 |
| 20260503024006 | 9 | 193 | 3.2 | 8.0 | 0.00 | 0.00 | 0.00 | 73 | 1012.5 |
| 20260503023006 | 9 | 216 | 3.2 | 6.4 | 0.00 | 0.00 | 0.00 | 73 | 1012.5 |
| 20260503022006 | 9 | 198 | 3.2 | 9.7 | 0.00 | 0.00 | 0.00 | 72 | 1012.6 |
| 20260503021217 | 10 | 188 | 3.2 | 9.7 | 0.00 | 0.00 | 0.00 | 72 | 1012.6 |
| 20260503020006 | 10 | 202 | 3.2 | 11.3 | 0.00 | 0.00 | 0.00 | 71 | 1012.6 |
| 20260503015003 | 10 | 225 | 0.0 | 6.4 | 0.00 | 0.00 | 0.00 | 71 | 1012.6 |
| 20260503014223 | 10 | 0 | 0.0 | 0.0 | 0.00 | 0.00 | 0.00 | 69 | 1012.7 |
| 20260503013221 | 10 | 0 | 0.0 | 0.0 | 0.00 | 0.00 | 0.00 | 69 | 1012.7 |
| 20260503012007 | 11 | 182 | 1.6 | 4.8 | 0.00 | 0.00 | 0.00 | 68 | 1012.7 |
| 20260503011006 | 11 | 186 | 3.2 | 9.7 | 0.00 | 0.00 | 0.00 | 68 | 1012.8 |
| 20260503010006 | 11 | 209 | 1.6 | 8.0 | 0.00 | 0.00 | 0.00 | 68 | 1012.8 |
| 20260503005006 | 11 | 0 | 0.0 | 0.0 | 0.00 | 0.00 | 0.00 | 67 | 1012.9 |
| 20260503004006 | 11 | 199 | 1.6 | 1.6 | 0.00 | 0.00 | 0.00 | 67 | 1013.0 |
| 20260503003003 | 11 | 194 | 1.6 | 6.4 | 0.00 | 0.00 | 0.00 | 66 | 1013.0 |
| 20260503002218 | 11 | 175 | 1.6 | 6.4 | 0.00 | 0.00 | 0.00 | 66 | 1013.0 |
| 20260503001003 | 11 | 204 | 3.2 | 6.4 | 0.00 | 0.00 | 0.00 | 65 | 1013.1 |
| 20260503000006 | 11 | 213 | 0.0 | 4.8 | 0.00 | 0.00 | 0.00 | 65 | 1013.1 |
| 20260502235003 | 12 | 0 | 0.0 | 0.0 | 0.00 | 0.00 | 0.00 | 64 | 1013.2 |
| 20260502234006 | 12 | 203 | 1.6 | 3.2 | 0.00 | 0.00 | 0.00 | 62 | 1013.2 |
| 20260502233003 | 12 | 203 | 1.6 | 3.2 | 0.00 | 0.00 | 0.00 | 61 | 1013.3 |
| 20260502232003 | 12 | 207 | 3.2 | 4.8 | 0.00 | 0.00 | 0.00 | 61 | 1013.4 |
| 20260502231006 | 12 | 200 | 3.2 | 4.8 | 0.00 | 0.00 | 0.00 | 60 | 1013.4 |
| 20260502230003 | 12 | 216 | 1.6 | 4.8 | 0.00 | 0.00 | 0.00 | 60 | 1013.4 |
| 20260502225006 | 13 | 205 | 0.0 | 3.2 | 0.00 | 0.00 | 0.00 | 59 | 1013.4 |
| 20260502224006 | 13 | 193 | 0.0 | 3.2 | 0.00 | 0.00 | 0.00 | 58 | 1013.5 |
| 20260502223003 | 13 | 188 | 0.0 | 3.2 | 0.00 | 0.00 | 0.00 | 57 | 1013.5 |
| 20260502222003 | 13 | 198 | 1.6 | 3.2 | 0.00 | 0.00 | 0.00 | 57 | 1013.5 |
| 20260502221006 | 14 | 207 | 1.6 | 3.2 | 0.00 | 0.00 | 0.00 | 55 | 1013.5 |
| 20260502220010 | 14 | 214 | 0.0 | 3.2 | 0.00 | 0.00 | 0.00 | 55 | 1013.5 |
| 20260502215003 | 15 | 0 | 0.0 | 0.0 | 0.00 | 0.00 | 0.00 | 55 | 1013.6 |
| 20260502214006 | 15 | 0 | 0.0 | 0.0 | 0.00 | 0.00 | 0.00 | 53 | 1013.5 |
| 20260502213221 | 15 | 0 | 0.0 | 0.0 | 0.00 | 0.00 | 0.00 | 52 | 1013.6 |
| 20260502212006 | 15 | 208 | 1.6 | 3.2 | 0.00 | 0.00 | 0.00 | 50 | 1013.6 |
| 20260502211006 | 15 | 217 | 1.6 | 4.8 | 0.00 | 0.00 | 0.00 | 49 | 1013.6 |
| 20260502210006 | 16 | 233 | 1.6 | 3.2 | 0.00 | 0.00 | 0.00 | 48 | 1013.7 |
| 20260502205003 | 16 | 232 | 0.0 | 4.8 | 0.00 | 0.00 | 0.00 | 48 | 1013.7 |
| 20260502204006 | 16 | 0 | 0.0 | 0.0 | 0.00 | 0.00 | 0.00 | 46 | 1013.7 |
| 20260502203006 | 17 | 219 | 1.6 | 3.2 | 0.00 | 0.00 | 0.00 | 45 | 1013.9 |
| 20260502202003 | 17 | 239 | 1.6 | 4.8 | 0.00 | 0.00 | 0.00 | 44 | 1013.9 |
| 20260502201003 | 17 | 264 | 0.0 | 1.6 | 0.00 | 0.00 | 0.00 | 43 | 1013.9 |
| 20260502200003 | 18 | 216 | 0.0 | 3.2 | 0.00 | 0.00 | 0.00 | 42 | 1013.8 |
| 20260502195003 | 18 | 230 | 1.6 | 1.6 | 0.00 | 0.00 | 0.00 | 40 | 1013.9 |
| 20260502194221 | 18 | 240 | 3.2 | 4.8 | 0.00 | 0.00 | 0.00 | 39 | 1013.9 |
| 20260502193006 | 19 | 239 | 1.6 | 4.8 | 0.00 | 0.00 | 0.00 | 37 | 1013.8 |
| 20260502192003 | 20 | 253 | 0.0 | 3.2 | 0.00 | 0.00 | 0.00 | 37 | 1013.7 |
| 20260502191006 | 21 | 266 | 3.2 | 6.4 | 0.00 | 0.00 | 0.00 | 35 | 1013.7 |
| 20260502190004 | 21 | 249 | 6.4 | 11.3 | 0.00 | 0.00 | 0.00 | 31 | 1013.7 |
| 20260502185006 | 21 | 250 | 8.0 | 11.3 | 0.00 | 0.00 | 0.00 | 31 | 1013.7 |
| 20260502184007 | 22 | 252 | 8.0 | 14.5 | 0.00 | 0.00 | 0.00 | 31 | 1013.7 |
| 20260502183222 | 22 | 252 | 8.0 | 12.9 | 0.00 | 0.00 | 0.00 | 31 | 1013.6 |
| 20260502182003 | 22 | 241 | 6.4 | 11.3 | 0.00 | 0.00 | 0.00 | 31 | 1013.5 |
| 20260502181003 | 22 | 238 | 6.4 | 9.7 | 0.00 | 0.00 | 0.00 | 30 | 1013.5 |
| 20260502164003 | 26 | 206 | 6.4 | 12.9 | 0.00 | 0.00 | 0.00 | 25 | 1013.9 |
| 20260502163006 | 26 | 189 | 4.8 | 12.9 | 0.00 | 0.00 | 0.00 | 24 | 1013.9 |
| 20260502162003 | 26 | 184 | 4.8 | 9.7 | 0.00 | 0.00 | 0.00 | 24 | 1014.0 |
| 20260502161003 | 26 | 164 | 6.4 | 16.1 | 0.00 | 0.00 | 0.00 | 24 | 1014.2 |
| 20260502152003 | 27 | 159 | 8.0 | 17.7 | 0.00 | 0.00 | 0.00 | 23 | 1014.6 |
| 20260502151221 | 27 | 213 | 8.0 | 17.7 | 0.00 | 0.00 | 0.00 | 23 | 1014.7 |
| 20260502123006 | 26 | 155 | 8.0 | 17.7 | 0.00 | 0.00 | 0.00 | 28 | 1017.2 |
| 20260502122003 | 26 | 188 | 9.7 | 17.7 | 0.00 | 0.00 | 0.00 | 30 | 1017.4 |
| 20260502121006 | 25 | 139 | 9.7 | 19.3 | 0.00 | 0.00 | 0.00 | 28 | 1017.5 |
| 20260502115003 | 25 | 143 | 8.0 | 19.3 | 0.00 | 0.00 | 0.00 | 32 | 1017.8 |
| 20260502114003 | 25 | 142 | 9.7 | 19.3 | 0.00 | 0.00 | 0.00 | 31 | 1018.0 |
| 20260502113006 | 25 | 152 | 8.0 | 19.3 | 0.00 | 0.00 | 0.00 | 30 | 1018.2 |
| 20260502112003 | 25 | 153 | 8.0 | 17.7 | 0.00 | 0.00 | 0.00 | 30 | 1018.4 |
| 20260502111006 | 25 | 167 | 8.0 | 19.3 | 0.00 | 0.00 | 0.00 | 32 | 1018.5 |
| 20260502110006 | 25 | 153 | 9.7 | 19.3 | 0.00 | 0.00 | 0.00 | 32 | 1018.7 |
| 20260502105006 | 24 | 148 | 8.0 | 19.3 | 0.00 | 0.00 | 0.00 | 33 | 1018.7 |
| 20260502104006 | 24 | 167 | 9.7 | 22.5 | 0.00 | 0.00 | 0.00 | 33 | 1018.9 |
| 20260502103006 | 24 | 152 | 9.7 | 22.5 | 0.00 | 0.00 | 0.00 | 35 | 1019.0 |
| 20260502102006 | 23 | 158 | 11.3 | 32.2 | 0.00 | 0.00 | 0.00 | 36 | 1019.1 |
| 20260502101221 | 23 | 140 | 11.3 | 24.1 | 0.00 | 0.00 | 0.00 | 34 | 1019.1 |
| 20260502091006 | 22 | 179 | 11.3 | 22.5 | 0.00 | 0.00 | 0.00 | 39 | 1019.9 |
| 20260502071006 | 14 | 169 | 6.4 | 9.7 | 0.00 | 0.00 | 0.00 | 62 | 1021.3 |
| 20260502070007 | 13 | 184 | 6.4 | 12.9 | 0.00 | 0.00 | 0.00 | 62 | 1021.3 |
| 20260502065007 | 13 | 173 | 6.4 | 12.9 | 0.00 | 0.00 | 0.00 | 67 | 1021.4 |
| 20260502064006 | 12 | 174 | 4.8 | 12.9 | 0.00 | 0.00 | 0.00 | 67 | 1021.4 |
| 20260502063003 | 12 | 166 | 4.8 | 9.7 | 0.00 | 0.00 | 0.00 | 71 | 1021.5 |
| 20260502062006 | 11 | 169 | 4.8 | 12.9 | 0.00 | 0.00 | 0.00 | 74 | 1021.5 |
| 20260502061003 | 10 | 179 | 6.4 | 12.9 | 0.00 | 0.00 | 0.00 | 76 | 1021.4 |
| 20260502060217 | 10 | 176 | 6.4 | 14.5 | 0.00 | 0.00 | 0.00 | 77 | 1021.5 |
| 20260502055003 | 9 | 170 | 3.2 | 11.3 | 0.00 | 0.00 | 0.00 | 81 | 1021.6 |
| 20260502054003 | 8 | 173 | 3.2 | 11.3 | 0.00 | 0.00 | 0.00 | 84 | 1021.7 |
| 20260502053217 | 7 | 181 | 1.6 | 8.0 | 0.00 | 0.00 | 0.00 | 85 | 1021.7 |
| 20260502052006 | 7 | 187 | 1.6 | 4.8 | 0.00 | 0.00 | 0.00 | 86 | 1021.6 |
| 20260502051006 | 6 | 161 | 0.0 | 6.4 | 0.00 | 0.00 | 0.00 | 88 | 1021.7 |
| 20260502050008 | 6 | 0 | 0.0 | 0.0 | 0.00 | 0.00 | 0.00 | 89 | 1021.7 |
| 20260502045003 | 6 | 170 | 1.6 | 4.8 | 0.00 | 0.00 | 0.00 | 89 | 1021.6 |
| 20260502044003 | 5 | 0 | 0.0 | 8.0 | 0.00 | 0.00 | 0.00 | 88 | 1021.7 |
| 20260502043006 | 5 | 0 | 0.0 | 0.0 | 0.00 | 0.00 | 0.00 | 88 | 1021.7 |
| 20260502042006 | 5 | 0 | 0.0 | 0.0 | 0.00 | 0.00 | 0.00 | 87 | 1021.7 |
| 20260502041003 | 5 | 0 | 0.0 | 0.0 | 0.00 | 0.00 | 0.00 | 87 | 1021.7 |
| 20260502040003 | 5 | 0 | 0.0 | 0.0 | 0.00 | 0.00 | 0.00 | 87 | 1021.8 |
| 20260502035003 | 5 | 0 | 0.0 | 0.0 | 0.00 | 0.00 | 0.00 | 87 | 1021.9 |
| 20260502034003 | 5 | 0 | 0.0 | 0.0 | 0.00 | 0.00 | 0.00 | 87 | 1021.9 |
| 20260502033006 | 6 | 0 | 0.0 | 0.0 | 0.00 | 0.00 | 0.00 | 87 | 1021.9 |
| 20260502032003 | 6 | 0 | 0.0 | 0.0 | 0.00 | 0.00 | 0.00 | 86 | 1022.0 |
| 20260502031003 | 6 | 0 | 0.0 | 0.0 | 0.00 | 0.00 | 0.00 | 86 | 1022.0 |
| 20260502030006 | 6 | 0 | 0.0 | 0.0 | 0.00 | 0.00 | 0.00 | 85 | 1022.2 |